Date,TemperatureHighF,TemperatureAvgF,TemperatureLowF,DewpointHighF,DewpointAvgF,DewpointLowF,HumidityHigh,HumidityAvg,HumidityLow,PressureMaxIn,PressureMinIn,WindSpeedMaxMPH,WindSpeedAvgMPH,GustSpeedMaxMPH,PrecipitationSumIn
2013-1-1,73,73,73,50,50,50,45,45,45,29.84,29.84,16,16,0,0.63
2013-1-2,73,52,34,50,32,16,59,47,45,30.62,29.84,16,10,0,5.79
2013-1-3,37,37,37,19,19,19,47,47,47,30.48,30.48,6,6,0,5.79
2013-1-4,55,44,37,24,18,13,49,37,22,30.75,30.48,10,3,0,5.04
2013-1-5,49,49,49,18,18,18,29,29,29,30.61,30.61,1,1,0,5.04
2013-1-6,49,49,49,18,18,18,29,29,29,30.61,30.61,1,1,0,5.04
2013-1-7,49,49,49,18,18,18,29,29,29,30.61,30.61,1,1,0,5.04
2013-1-9,57,57,49,56,55,18,95,93,29,30.61,30.23,13,4,0,0.24
2013-1-10,57,57,57,55,55,55,93,93,93,30.23,30.23,4,4,0,0.24
2013-1-11,57,57,57,55,55,55,93,93,93,30.23,30.23,4,4,0,0.24
2013-1-12,57,57,57,55,55,55,93,93,93,30.23,30.23,4,4,0,0.24
2013-1-13,57,57,57,55,55,55,93,93,93,30.23,30.23,4,4,0,0.24
2013-1-14,57,41,31,55,27,9,93,60,40,30.58,30.23,10,6,0,0.04
2013-1-15,31,31,31,10,10,10,40,40,40,30.57,30.57,8,8,0,0.00
2013-1-16,31,31,31,10,10,10,40,40,40,30.57,30.57,8,8,0,0.00
2013-1-17,31,31,31,10,10,10,40,40,40,30.57,30.57,8,8,0,0.00
2013-1-18,31,31,31,10,10,10,40,40,40,30.57,30.57,8,8,0,0.00
2013-1-19,31,31,31,10,10,10,40,40,40,30.57,30.57,8,8,0,0.00
2013-1-20,31,31,31,10,10,10,40,40,40,30.57,30.57,8,8,0,0.00
2013-1-21,31,31,31,10,10,10,40,40,40,30.57,30.57,8,8,0,0.00
2013-1-22,31,31,31,10,10,10,40,40,40,30.57,30.57,8,8,0,0.00